Flag Weather past 2 weeks in Kennebunk, Maine, U.S.A.

Now
34 °F

Overcast.


Feels Like: 29 °F
Forecast: 27 / 36 °F
Wind: 6 mph from West

Location: Sanford Municipal

Current Time: Nov 27, 2014 at 12:27:49 PM

Latest Report: Nov 27, 2014 at 11:55 AM


Visibility: 10 mi

Pressure: 29.93 "Hg

Humidity: 75%

Dew point: 27 °F

Location of KennebunkLocation

Historic Weather in Kennebunk — Graph

°F

Kennebunk temperature yesterday

Maximum temperature yesterday: 43 °F (at 2:55 AM)
Minimum temperature yesterday: 30 °F (at 8:55 PM)
Average temperature yesterday: 35 °F

Past Weeks' High & Low Weather Summary

 TemperatureHumidityPressure
High63 °F (Nov 24, 4:55 PM)94% (Nov 24, 8:35 AM)30.37 "Hg (Nov 24, 8:35 AM)
Low16 °F (Nov 15, 5:35 AM)27% (Nov 19, 1:35 PM)29.40 "Hg (Nov 18, 1:55 AM)
Average35 °F59%29.97 "Hg
* Reported Nov 12 11:15 AM — Nov 27 11:35 AM, Kennebunk, Weather by CustomWeather, © 2014

Note: Actual official high and low records may vary slightly from our data, if they occured in-between our weather recording intervals... More about our weather records

Advertising

Kennebunk weather history for previous 24 hours

 ConditionsComfort  
Time TempWeatherWind HumidityBarometerVisibility
11:35 AM
Nov 27
34 °FOvercast.5 mph70%29.93 "Hg10 mi
11:15 AM34 °FMostly cloudy.3 mph70%29.93 "Hg10 mi
10:55 AM34 °FMore clouds than sun.6 mph75%29.93 "Hg10 mi
10:35 AM34 °FOvercast.No wind75%29.93 "Hg10 mi
9:55 AM32 °FPartly sunny.No wind75%29.91 "Hg10 mi
9:35 AM32 °FPassing clouds.No wind75%29.91 "Hg10 mi
9:15 AM32 °FScattered clouds.6 mph75%29.90 "Hg10 mi
8:55 AM30 °FPassing clouds.6 mph80%29.89 "Hg10 mi
8:35 AM30 °FSunny.6 mph86%29.88 "Hg10 mi
8:15 AM30 °FSunny.5 mph86%29.87 "Hg10 mi
7:55 AM30 °FSunny.7 mph80%29.85 "Hg10 mi
7:35 AM30 °FPassing clouds.6 mph75%29.85 "Hg10 mi
7:15 AM30 °FPartly sunny.5 mph69%29.83 "Hg7 mi
6:55 AM30 °FScattered clouds.5 mph75%29.82 "Hg10 mi
6:35 AM30 °FPassing clouds.7 mph80%29.81 "Hg10 mi
5:55 AM30 °FOvercast.10 mph86%29.80 "Hg10 mi
5:35 AM30 °FPassing clouds.8 mph86%29.80 "Hg10 mi
4:55 AM30 °FPassing clouds.10 mph75%29.76 "Hg10 mi
4:35 AM32 °FPartly cloudy.13 mph75%29.76 "Hg8 mi
4:15 AM30 °FPassing clouds.15 mph80%29.75 "Hg5 mi
3:55 AM32 °FOvercast.13 mph75%29.74 "Hg6 mi
3:35 AM32 °FMostly cloudy.13 mph80%29.74 "Hg4 mi
3:15 AM30 °FMostly cloudy.13 mph93%29.74 "Hg2 mi
2:55 AM30 °FLow clouds.15 mph86%29.73 "Hg2 mi
2:35 AM30 °FLow clouds.12 mph80%29.73 "Hg2 mi
2:15 AM30 °FLow clouds.15 mph80%29.73 "Hg1 mi
1:55 AM30 °FLow clouds.18 mph80%29.72 "Hg1 mi
1:35 AM30 °FLow clouds.15 mph93%29.72 "Hg1 mi
1:15 AM30 °FLow clouds.18 mph86%29.72 "Hg1 mi
12:55 AM30 °FLow clouds.17 mph80%29.70 "Hg1 mi
12:35 AM30 °FLow clouds.20 mph80%29.70 "Hg1 mi
12:15 AM30 °FLow clouds.20 mph86%29.71 "Hg1 mi
11:55 PM
Nov 26
30 °FLow clouds.22 mph93%29.71 "Hg1 mi
11:35 PM30 °FLow clouds.22 mph80%29.72 "Hg1 mi
11:15 PM30 °FLow clouds.20 mph80%29.74 "Hg1 mi
10:55 PM30 °FLow clouds.20 mph93%29.75 "Hg1 mi
10:35 PM30 °FLow clouds.17 mph93%29.76 "Hg1 mi
9:55 PM30 °FLow clouds.18 mph86%29.79 "Hg1 mi
9:35 PM30 °FLow clouds.18 mph93%29.80 "Hg1 mi
9:15 PM30 °FMostly cloudy.21 mph86%29.80 "Hg2 mi
8:55 PM30 °FLow clouds.16 mph80%29.80 "Hg2 mi
8:35 PM32 °FLow clouds.23 mph80%29.78 "Hg1 mi
8:15 PM32 °FLow clouds.21 mph87%29.81 "Hg1 mi
7:55 PM32 °FLow clouds.18 mph80%29.85 "Hg1 mi
7:35 PM32 °FLow clouds.18 mph75%29.87 "Hg2 mi
6:55 PM32 °FLow clouds.17 mph87%29.89 "Hg1 mi
6:35 PM32 °FLow clouds.17 mph87%29.92 "Hg1 mi
6:15 PM32 °FLow clouds.16 mph80%29.94 "Hg1 mi
5:55 PM32 °FLow clouds.16 mph80%29.96 "Hg2 mi
5:35 PM32 °FLow clouds.17 mph80%29.98 "Hg1 mi
5:15 PM32 °FLow clouds.17 mph87%29.98 "Hg1 mi
4:55 PM32 °FLow clouds.14 mph87%30.00 "Hg1 mi
4:35 PM32 °FLow clouds.21 mph80%29.97 "Hg2 mi
4:15 PM32 °FLow clouds.17 mph80%30.02 "Hg1 mi
3:55 PM32 °FLow clouds.15 mph80%30.06 "Hg1 mi
3:35 PM32 °FLow clouds.13 mph80%30.09 "Hg1 mi
3:15 PM32 °FLow clouds.13 mph80%30.11 "Hg1 mi
2:55 PM32 °FLow clouds.8 mph80%30.14 "Hg1 mi
2:35 PM32 °FLow clouds.9 mph87%30.13 "Hg1 mi
2:15 PM32 °FLow clouds.13 mph80%30.08 "Hg1 mi
1:55 PM32 °FLow clouds.7 mph87%30.15 "Hg1 mi
1:35 PM32 °FLow clouds.14 mph80%30.10 "Hg1 mi
1:15 PM32 °FLow clouds.20 mph80%30.13 "Hg0 mi
12:55 PM32 °FLow clouds.7 mph80%30.15 "Hg1 mi
12:35 PM32 °FLow clouds.6 mph80%30.18 "Hg1 mi
12:15 PM32 °FLow clouds.6 mph87%30.17 "Hg1 mi
Weather by CustomWeather, © 2014

See weather overviewHow to use our weather pages